Location: Newark
(44.3681°N, 100.3364°W)
Time: 15:38:07
(UTC+00:00)

deb Explorer IX - Pass Details

Date: 23 February 2020
Orbit: 547 x 1100 km, 38.8° (Epoch: 31 March)

Event Time Altitude Azimuth Distance (km) Brightness Sun altitude
Rises 15:22:21 0° 202° (SSW) 3,034 ? 17.6°
Reaches altitude 10° 15:26:40 10° 166° (SSE) 1,990 ? 18.3°
Maximum altitude 15:27:52 11° 151° (SSE) 1,899 ? 18.4°
Drops below altitude 10° 15:29:02 10° 135° (SE) 1,931 ? 18.6°
Sets 15:32:57 0° 98° (E) 2,754 ? 19.2°
